User: anonymous   Login
Location: Unspecified
(0.0000°N, 0.0000°E)
Time: 16:36:33
(UTC+00:00)
Language:

GONETS M 09 (M19) - Orbit

View from above orbital plane
View from above orbital plane
View from above satellite
View from above satellite

Ground track
Ground track

The orbit data is extracted from the following two-line orbital elements,

1 40062U 14036B   17204.87321658 +.00000010 +00000-0 +00000-0 0  9991
2 40062 082.5099 166.3354 0023523 044.8025 315.4951 12.42886293138671
Epoch (UTC): 23 July 2017 20:57:25
Eccentricity: 0.0023523
inclination: 82.5099°
perigee height: 1476 km
apogee height: 1513 km
right ascension of ascending node: 166.3354°
argument of perigee: 44.8025°
revolutions per day: 12.42886293
mean anomaly at epoch: 315.4951°
orbit number at epoch: 13867

The dashed part of the orbit path shows where the satellite is in the earth's shadow,  

DLR